User: anonymous   Login
Location: Hemaruka
(51.7801°N, 111.0917°W)
Time: 22:23:21
(UTC+00:00)
Language:

SPROUT - Orbit

View from above orbital plane
View from above orbital plane
View from above satellite
View from above satellite

Ground track
Ground track

The orbit data is extracted from the following two-line orbital elements,

1 39770U 14029E   23333.33407294  .00050759  00000-0  28650-2 0  9997
2 39770  98.0020 106.7881 0004420 126.1447 234.0192 15.12945465517021
Epoch (UTC): 29 November 2023 08:01:03
Eccentricity: 0.0004420
inclination: 98.0020°
perigee height: 524 km
apogee height: 530 km
right ascension of ascending node: 106.7881°
argument of perigee: 126.1447°
revolutions per day: 15.12945465
mean anomaly at epoch: 234.0192°
orbit number at epoch: 51702

The dashed part of the orbit path shows where the satellite is in the earth's shadow,  

DLR